Lid_Strength_Index
12 11 11 12 12 12 11 11 11 11 11 11 11 11 11 11 11 11 11 11 11 11 10 11 10 10 10 10 10 10 11 11 13 11 9 8 8 8 9 9 9 10 10
12 12 11 11 11 11 12 12 11 12 11 11 11 11 11 11 11 11 12 11 12 12 11 11 11 10 11 10 10 11 11 10 11 13 10 10 9 9 9 10 10 10 10
12 12 12 11 11 11 11 11 11 12 11 12 11 11 12 12 12 12 12 12 12 12 12 12 12 12 12 11 11 11 10 10 11 12 12 10 10 8 10 10 10 10 10
12 12 12 12 11 11 11 11 11 10 11 11 11 12 12 12 13 13 13 13 12 12 12 12 12 12 12 11 11 11 11 11 11 12 12 11 10 9 10 12 12 10 11
13 14 12 11 11 11 11 11 11 11 11 10 11 10 11 11 12 12 12 12 12 12 12 12 11 11 11 11 11 11 11 12 12 12 12 11 11 11 12 11 12 11 11
15 15 14 14 13 14 12 12 11 11 11 11 11 11 11 10 9 9 10 11 11 12 12 11 11 11 11 10 10 9 9 11 11 12 12 12 11 11 11 11 12 13 14
17 16 16 16 15 15 14 13 13 12 12 12 12 12 12 11 10 9 9 10 11 11 12 12 12 11 11 11 10 10 9 9 9 9 10 11 11 10 10 12 12 12 13
17 16 14 15 15 15 14 14 13 13 13 13 13 12 12 12 10 9 9 10 11 12 12 12 12 12 11 11 11 11 11 10 10 10 10 10 9 10 11 11 12 12 11
14 13 13 14 14 14 13 13 12 13 13 13 13 13 13 13 10 10 10 11 12 12 12 12 12 12 11 10 11 11 11 10 9 9 8 8 8 8 8 10 11 13 14
11 10 11 12 13 13 12 12 11 12 12 12 12 12 13 13 11 10 10 11 13 13 13 12 12 12 10 10 11 11 11 10 10 11 10 10 10 11 10 10 11 13 13
8 9 10 11 11 11 11 11 11 12 12 13 13 13 13 13 13 10 10 11 12 13 13 12 12 10 10 10 9 10 10 9 10 10 10 12 13 13 13 12 11 12 14
8 9 9 9 9 8 10 10 11 12 13 13 14 13 12 12 12 11 10 10 10 12 12 12 12 10 9 9 10 9 8 8 9 10 11 12 13 12 13 13 13 14 13
9 9 10 9 9 8 9 10 10 10 11 12 12 12 12 11 12 10 10 10 10 12 12 12 11 10 9 9 9 9 9 9 10 11 12 12 12 13 14 14 14 14 15
10 10 11 11 10 10 9 9 9 10 10 10 11 11 11 11 11 11 11 12 12 12 12 12 12 11 10 10 10 10 9 10 10 11 11 12 13 14 15 15 15 15 16
10 11 11 10 10 10 10 10 10 9 9 10 10 10 10 11 10 10 10 11 10 11 12 12 12 13 13 12 12 11 10 11 12 12 13 13 15 15 15 15 16 17 17
10 10 10 10 10 10 11 10 7 6 6 5 5 5 6 6 6 6 7 8 8 8 11 12 13 13 13 13 13 11 12 13 13 13 14 15 15 15 15 15 17 18 18
10 10 10 11 11 11 12 11 12 9 6 6 5 5 5 6 6 7 7 7 8 9 12 13 13 13 13 13 12 12 12 13 12 14 14 15 15 14 15 16 18 19 19
11 11 11 10 11 12 12 11 11 11 12 10 8 7 7 6 7 7 8 9 11 12 13 14 14 13 12 12 12 12 12 13 14 14 15 15 15 15 16 17 19 19 19
12 12 11 13 13 13 12 11 11 11 11 11 11 10 10 9 9 9 9 12 14 15 14 14 13 13 12 11 12 13 13 15 15 14 15 15 15 15 17 17 19 22 23
13 14 14 14 13 13 12 12 11 11 12 12 13 13 12 14 16 16 16 17 17 15 14 13 13 11 11 12 12 13 15 16 15 15 15 15 15 16 17 19 20 20 21
15 14 13 12 12 12 13 13 12 13 13 13 13 13 11 13 14 15 16 16 16 15 15 14 12 11 12 13 12 14 15 16 16 16 15 16 16 17 18 19 21 23 22
15 15 16 16 14 14 14 13 13 14 14 15 15 14 12 15 17 18 18 18 17 16 15 13 13 11 11 12 13 14 16 16 16 16 15 17 17 18 21 22 23 24 23
16 16 16 16 16 16 15 15 15 15 16 16 16 17 17 18 19 20 19 19 18 17 15 13 12 10 10 11 13 13 15 16 16 15 16 17 19 21 22 23 24 24 23
18 18 17 16 16 16 16 17 17 17 17 17 18 19 19 20 21 21 20 19 18 17 16 15 13 11 11 13 13 14 14 16 15 16 16 18 20 22 23 24 24 25 25
19 18 17 17 17 17 17 17 18 18 18 19 19 20 20 21 21 21 20 19 18 18 17 15 12 11 12 13 14 16 18 16 16 17 17 19 21 23 24 24 26 27 28
19 19 18 17 17 17 18 18 19 19 19 20 20 20 20 20 20 20 19 19 18 17 16 14 12 13 12 13 15 17 18 18 18 18 19 21 22 24 24 25 27 26 27